Weather History for K36U - August, 2013

Change the Weather History Date:

Saturday, August 17, 2013

  Actual Average (KPVU) Record (KPVU)
Temperature  
Mean Temperature 74 °F -  
Max Temperature 96 °F 86 °F 96 °F (1986)
Min Temperature 51 °F 57 °F 51 °F (1987)
Cooling Degree Days 8    
Growing Degree Days 24 (Base 50)    
Moisture  
Dew Point 46 °F    
Average Humidity 56    
Maximum Humidity 94    
Minimum Humidity 10    
Precipitation  
Precipitation 0.00 in - - ()
Sea Level Pressure  
Sea Level Pressure 30.22 in    
Wind  
Wind Speed 3 mph (South)    
Max Wind Speed 18 mph    
Max Gust Speed 31 mph    
Visibility 10 miles    
Events Rain , Thunderstorm    
Averages and records for this station are not official NWS values.
T = Trace of Precipitation, MM = Missing Value Source: NWS Daily Summary

Daily Weather History Graph

Daily Weather History Graph

Search for Another Location

Airport or City:

Trip Planner

Search our weather history database for the weather conditions in past years. The results will help you decide how hot, cold, wet, or windy it might be!

Date:

Astronomy

Aug. 17, 2013 Rise Set
Actual Time 6:38 AM MDT 8:19 PM MDT
Civil Twilight 6:09 AM MDT 8:48 PM MDT
Nautical Twilight 5:34 AM MDT 9:23 PM MDT
Astronomical Twilight 4:56 AM MDT 10:01 PM MDT
Moon 5:39 PM MDT (8/17) 2:45 AM MDT (8/17)
Length of Visible Light 14h 39m
Length of Day
13h 41m
Waxing Gibbous, 85% of the Moon is Illuminated
Aug 17
Waxing Gibbous
Aug 20
Full
Aug 28
Last Quarter
Sep 5
New
Sep 12
First Quarter

Hourly Weather History & Observations

Time (MDT) Temp. Dew Point Humidity Pressure Visibility Wind Dir Wind Speed Gust Speed Precip Events Conditions
12:15 AM 59.0 °F 42.8 °F 55% 30.20 in 10.0 mi Calm Calm - N/A   Clear
12:35 AM 57.2 °F 44.6 °F 63% 30.21 in 10.0 mi ESE 3.5 mph - N/A   Clear
12:55 AM 59.0 °F 44.6 °F 59% 30.21 in 10.0 mi SE 3.5 mph - N/A   Clear
1:15 AM 59.0 °F 44.6 °F 59% 30.21 in 10.0 mi Calm Calm - N/A   Clear
1:35 AM 60.8 °F 42.8 °F 52% 30.20 in 10.0 mi Calm Calm - N/A   Clear
1:55 AM 59.0 °F 44.6 °F 59% 30.21 in 10.0 mi Calm Calm - N/A   Clear
2:15 AM 60.8 °F 44.6 °F 55% 30.21 in 10.0 mi Calm Calm - N/A   Clear
2:35 AM 59.0 °F 46.4 °F 63% 30.21 in 10.0 mi Calm Calm - N/A   Clear
2:55 AM 57.2 °F 46.4 °F 67% 30.20 in 10.0 mi SE 3.5 mph - N/A   Clear
3:15 AM 55.4 °F 46.4 °F 72% 30.20 in 10.0 mi Calm Calm - N/A   Clear
3:35 AM 59.0 °F 42.8 °F 55% 30.20 in 10.0 mi Calm Calm - N/A   Clear
3:55 AM 59.0 °F 44.6 °F 59% 30.20 in 10.0 mi Calm Calm - N/A   Clear
4:15 AM 57.2 °F 44.6 °F 63% 30.20 in 10.0 mi Calm Calm - N/A   Clear
4:35 AM 57.2 °F 46.4 °F 67% 30.20 in 10.0 mi Calm Calm - N/A   Clear
4:55 AM 57.2 °F 46.4 °F 67% 30.20 in 10.0 mi Calm Calm - N/A   Clear
5:15 AM 59.0 °F 46.4 °F 63% 30.21 in 10.0 mi Calm Calm - N/A   Clear
5:35 AM 55.4 °F 46.4 °F 72% 30.21 in 10.0 mi Calm Calm - N/A   Clear
5:55 AM 51.8 °F 44.6 °F 76% 30.21 in 10.0 mi Calm Calm - N/A   Clear
6:15 AM 51.8 °F 44.6 °F 76% 30.21 in 10.0 mi Calm Calm - N/A   Clear
6:35 AM 51.8 °F 42.8 °F 71% 30.21 in 10.0 mi Calm Calm - N/A   Clear
6:55 AM 51.8 °F 42.8 °F 71% 30.22 in 10.0 mi Calm Calm - N/A   Clear
7:15 AM 51.8 °F 42.8 °F 71% 30.22 in 10.0 mi Calm Calm - N/A   Clear
7:35 AM 53.6 °F 42.8 °F 67% 30.23 in 10.0 mi Calm Calm - N/A   Clear
7:55 AM 57.2 °F 46.4 °F 67% 30.23 in 10.0 mi Calm Calm - N/A   Clear
8:15 AM 60.8 °F 44.6 °F 55% 30.23 in 10.0 mi Calm Calm - N/A   Clear
8:35 AM 62.6 °F 46.4 °F 55% 30.24 in 10.0 mi Calm Calm - N/A   Clear
8:55 AM 64.4 °F 44.6 °F 49% 30.24 in 10.0 mi Calm Calm - N/A   Clear
9:15 AM 66.2 °F 42.8 °F 43% 30.24 in 10.0 mi Calm Calm - N/A   Clear
9:35 AM 69.8 °F 44.6 °F 40% 30.24 in 10.0 mi Calm Calm - N/A   Clear
9:55 AM 69.8 °F 42.8 °F 38% 30.23 in 10.0 mi Calm Calm - N/A   Clear
10:15 AM 73.4 °F 42.8 °F 33% 30.22 in 10.0 mi Calm Calm - N/A   Clear
10:35 AM 75.2 °F 42.8 °F 31% 30.22 in 10.0 mi Calm Calm - N/A   Clear
10:55 AM 78.8 °F 41.0 °F 26% 30.21 in 10.0 mi Calm Calm - N/A   Clear
11:15 AM 80.6 °F 41.0 °F 24% 30.21 in 10.0 mi Calm Calm - N/A   Clear
11:35 AM 86.0 °F 42.8 °F 22% 30.20 in 10.0 mi SSW 4.6 mph - N/A   Clear
11:55 AM 89.6 °F 41.0 °F 18% 30.19 in 10.0 mi SW 16.1 mph - N/A   Clear
12:15 PM 91.4 °F 41.0 °F 17% 30.19 in 10.0 mi WSW 17.3 mph 20.7 mph N/A   Clear
12:35 PM 89.6 °F 41.0 °F 18% 30.17 in 10.0 mi SW 18.4 mph - N/A   Clear
12:55 PM 91.4 °F 39.2 °F 16% 30.16 in 10.0 mi SW 15.0 mph 23.0 mph N/A   Clear
1:15 PM 91.4 °F 37.4 °F 15% 30.15 in 10.0 mi SW 13.8 mph - N/A   Clear
1:35 PM 93.2 °F 37.4 °F 14% 30.14 in 10.0 mi WSW 13.8 mph - N/A   Clear
1:55 PM 95.0 °F 35.6 °F 12% 30.13 in 10.0 mi WSW 12.7 mph - N/A   Clear
2:15 PM 96.8 °F 32.0 °F 10% 30.13 in 10.0 mi WSW 12.7 mph 16.1 mph N/A   Clear
2:35 PM 89.6 °F 33.8 °F 14% 30.13 in 10.0 mi SSE 4.6 mph - N/A Thunderstorm Thunderstorm
2:55 PM 87.8 °F 35.6 °F 16% 30.14 in 10.0 mi East 5.8 mph 24.2 mph N/A   Scattered Clouds
3:15 PM 82.4 °F 37.4 °F 20% 30.16 in 10.0 mi East 9.2 mph - N/A Thunderstorm Mostly Cloudy
3:35 PM 78.8 °F 44.6 °F 30% 30.20 in 10.0 mi ENE 8.1 mph 11.5 mph N/A Rain , Thunderstorm Rain
3:55 PM 69.8 °F 48.2 °F 46% 30.24 in 2.0 mi NW 15.0 mph 31.1 mph N/A Rain , Thunderstorm Heavy Thunderstorms and Rain
4:15 PM 62.6 °F 53.6 °F 72% 30.28 in 10.0 mi WNW 13.8 mph - N/A Rain , Thunderstorm Thunderstorms and Rain
4:35 PM 60.8 °F 55.4 °F 82% 30.33 in 10.0 mi ESE 3.5 mph - N/A Rain , Thunderstorm Light Thunderstorms and Rain
4:55 PM 60.8 °F 55.4 °F 82% 30.37 in 4.0 mi Calm Calm - N/A Rain Heavy Rain
5:15 PM 60.8 °F 55.4 °F 82% 30.36 in 5.0 mi East 15.0 mph - N/A Rain Rain
5:35 PM 60.8 °F 55.4 °F 82% 30.33 in 4.0 mi East 17.3 mph 27.6 mph N/A Rain Light Rain
5:55 PM 60.8 °F 53.6 °F 77% 30.32 in 10.0 mi East 15.0 mph - N/A   Scattered Clouds
6:15 PM 64.4 °F 53.6 °F 68% 30.31 in 10.0 mi NE 6.9 mph - N/A   Clear
6:35 PM 66.2 °F 51.8 °F 60% 30.29 in 10.0 mi North 8.1 mph - N/A   Clear
6:55 PM 68.0 °F 51.8 °F 56% 30.27 in 10.0 mi WSW 4.6 mph - N/A   Clear
7:15 PM 66.2 °F 51.8 °F 60% 30.25 in 10.0 mi WSW 5.8 mph - N/A   Clear
7:35 PM 66.2 °F 53.6 °F 64% 30.24 in 10.0 mi SW 6.9 mph - N/A   Clear
7:55 PM 64.4 °F 51.8 °F 64% 30.23 in 10.0 mi South 3.5 mph - N/A   Clear
8:15 PM 62.6 °F 51.8 °F 68% 30.23 in 10.0 mi SSE 5.8 mph - N/A   Clear
8:35 PM 62.6 °F 51.8 °F 68% 30.23 in 10.0 mi ESE 3.5 mph - N/A   Clear
8:55 PM 60.8 °F 53.6 °F 77% 30.22 in 10.0 mi NNE 3.5 mph - N/A   Clear
9:15 PM 60.8 °F 53.6 °F 77% 30.22 in 10.0 mi North 3.5 mph - N/A   Clear
9:35 PM 59.0 °F 53.6 °F 82% 30.22 in 10.0 mi Calm Calm - N/A   Clear
9:55 PM 59.0 °F 51.8 °F 77% 30.22 in 10.0 mi Calm Calm - N/A   Clear
10:15 PM 57.2 °F 51.8 °F 82% 30.23 in 10.0 mi South 3.5 mph - N/A   Clear
10:35 PM 59.0 °F 51.8 °F 77% 30.23 in 10.0 mi Calm Calm - N/A   Clear
10:55 PM 55.4 °F 51.8 °F 88% 30.23 in 10.0 mi Calm Calm - N/A   Clear
11:15 PM 55.4 °F 51.8 °F 88% 30.22 in 10.0 mi Calm Calm - N/A   Clear
11:35 PM 55.4 °F 51.8 °F 88% 30.23 in 10.0 mi Calm Calm - N/A   Clear
11:55 PM 53.6 °F 51.8 °F 94% 30.23 in 10.0 mi Calm Calm - N/A   Clear